Hourly Data Report for October 11, 2014

All times are specified in Local Standard Time (LST). Add 1 hour to adjust for Daylight Saving Time where and when it is observed.

TORONTO INTL A
ONTARIO

43°40'36.000" N
79°37'50.000" W
173.40 m
6158731
71624
YYZ

Download Data

Hourly Data (October 2014)
Hourly Data Report for October 11, 2014
Temp Definition
°C
Dew Point Temp Definition
°C
Rel Hum Definition
%
Wind Dir Definition
10's deg

Wind Spd Definition
km/h
Visibility Definition
km
Stn Press Definition
kPa
Hmdx Definition


Wind Chill Definition


Weather Definition


TIME
00:00 Legend Double Dagger 4.3 1.7 83 31 8 24.1 99.93     LegendNANA
01:00 Legend Double Dagger 4.8 1.8 81 31 13 24.1 99.93     Mostly Cloudy
02:00 Legend Double Dagger 5.1 1.8 79 22 3 24.1 99.93     LegendNANA
03:00 Legend Double Dagger 4.1 1.5 83 29 6 24.1 99.88     LegendNANA
04:00 Legend Double Dagger 3.8 1.4 84 28 5 24.1 99.89     Mostly Cloudy
05:00 Legend Double Dagger 4.0 1.6 84 36 3 24.1 99.92     LegendNANA
06:00 Legend Double Dagger 4.7 2.1 83 31 8 24.1 99.97     LegendNANA
07:00 Legend Double Dagger 5.3 2.3 81 30 5 24.1 100.00     Mainly Clear
08:00 Legend Double Dagger 6.5 3.1 79 31 10 24.1 100.04     LegendNANA
09:00 Legend Double Dagger 9.1 3.5 68 31 10 24.1 100.10     LegendNANA
10:00 Legend Double Dagger 11.0 2.9 57 35 19 24.1 100.13     Mostly Cloudy
11:00 Legend Double Dagger 12.0 4.0 58 33 13 24.1 100.08     LegendNANA
12:00 Legend Double Dagger 12.9 1.3 45 30 18 24.1 100.06     LegendNANA
13:00 Legend Double Dagger 12.4 1.5 47 36 21 24.1 100.03     Mostly Cloudy
14:00 Legend Double Dagger 12.8 0.9 44 32 14 24.1 100.00     LegendNANA
15:00 Legend Double Dagger 12.5 0.0 42 32 22 24.1 100.02     LegendNANA
16:00 Legend Double Dagger 12.2 -0.3 42 31 18 24.1 100.02     Mostly Cloudy
17:00 Legend Double Dagger 11.9 1.0 47 36 22 24.1 100.05     LegendNANA
18:00 Legend Double Dagger 10.4 1.3 53 34 19 24.1 100.14     LegendNANA
19:00 Legend Double Dagger 9.2 1.6 59 32 14 24.1 100.17     Mainly Clear
20:00 Legend Double Dagger 8.5 1.0 59 33 17 24.1 100.23     LegendNANA
21:00 Legend Double Dagger 6.8 0.5 64 32 13 24.1 100.28     LegendNANA
22:00 Legend Double Dagger 6.3 1.1 69 30 12 24.1 100.30     Clear
23:00 Legend Double Dagger 4.9 0.9 75 30 7 24.1 100.29     LegendNANA

Notes on Data Quality.

Legend

  • E = Estimated
  • M = Missing
  • NA = Not Available
  • ‡ = Partner data that is not subject to review by the National Climate Archives
Date modified: